Location: Dilsberg
(49.3983°N, 8.8354°E)
Time: 10:47:39
(UTC+00:00)

Cosmos 773 Rocket - Pass Details

Date: 19 May 2025
Orbit: 742 x 772 km, 74.1° (Epoch: 22 June)

Event Time Altitude Azimuth Distance (km) Brightness Sun altitude
Exits shadow 21:51:34 11° 216° (SW) 2,162 6.0 -17.8°
Maximum altitude 21:56:23 63° 297° (WNW) 836 4.3 -18.1°
Drops below altitude 10° 22:01:28 10° 18° (NNE) 2,266 7.2 -18.4°
Sets 22:03:52 0° 22° (NNE) 3,193 8.0 -18.5°
